Retour au catalogue

COSMOS 2598

ActifMilitairePO
NORAD 66648·PAYLOAD·🇷🇺 Russia

Lancé Nov 25, 2025 depuis Plesetsk Cosmodrome

Loading…

Prochains Passages (prochaines 24 heures)

TLE

FraisSource: Space-Track

Époque: Sep 14, 2026, 13:29 UTC

1 66648U 25273B   26257.56181570  .00000026  00000-0  11859-3 0  9999
2 66648  82.5007 115.0163 0011333 355.8816   4.2169 12.42882522 36409

Suivez COSMOS 2598 en temps réel avec AllMySat

Download on the App Store